Location: Edinburgh
(55.9500°N, 3.1600°W)
Time: 07:22:41
(UTC+01:00)

ISS - Pass Details

Date: 08 October 2017
Orbit: 401 x 408 km, 51.6° (Epoch: 22 October)

Event Time Altitude Azimuth Distance (km) Brightness Sun altitude
Rises 20:11:15 0° 270° (W) 2,328 1.7 -15.0°
Reaches altitude 10° 20:13:29 10° 258° (WSW) 1,468 0.1 -15.3°
Maximum altitude 20:16:22 28° 198° (SSW) 795 -2.3 -15.7°
Enters shadow 20:17:33 22° 161° (SSE) 946 -2.3 -15.9°
